Home   Weather   Murmansk   Past weeks

Flag for Russia Past Weather in Murmansk, Russia — Yesterday and Last 2 Weeks

Now
46 °F

Low clouds.


Feels Like: 44 °F
Forecast: 38 / 67 °F
Wind: 6 mph from East

Location: Kirkenes Lufthavn

Current Time: Jul 24, 2017 at 5:57:18 am

Latest Report: Jul 24, 2017 at 5:20 am


Visibility: N/A

Pressure: 30.24 "Hg

Humidity: 93%

Dew Point: 45 °F

Location of MurmanskLocation

Past Weather in Murmansk — Graph

°F

Murmansk Temperature Yesterday

Maximum temperature yesterday: 54 °F (at 6:20 pm)
Minimum temperature yesterday: 48 °F (at 7:20 am)
Average temperature yesterday: 50 °F

High & Low Weather Summary for the Past Weeks

 TemperatureHumidityPressure
High75 °F (Jul 17, 3:50 pm)100% (Jul 13, 1:50 am)30.33 "Hg (Jul 13, 1:50 am)
Low46 °F (Jul 14, 5:50 pm)27% (Jul 10, 3:50 pm)29.36 "Hg (Jul 13, 10:20 am)
Average57 °F75%29.86 "Hg
* Reported Jul 9 4:20 am — Jul 24 4:20 am, Murmansk. Weather by CustomWeather, © 2017

Note: Actual official high and low records may vary slightly from our data, if they occured in-between our weather recording intervals... More about our weather records

Advertising

Murmansk Weather History for the Previous 24 Hours

Scroll right to see more
 ConditionsComfort  
Time TempWeatherWind HumidityBarometerVisibility
4:20 am
Mon, Jul 24
46 °FMostly cloudy.3 mph100%30.24 "HgN/A
3:20 am46 °FMostly cloudy.6 mph100%30.24 "HgN/A
2:50 am46 °FLow clouds.5 mph100%30.24 "HgN/A
2:20 am46 °FLow clouds.No wind93%30.24 "HgN/A
1:50 am46 °FLow clouds.5 mph100%30.24 "HgN/A
1:20 am46 °FLow clouds.3 mph93%30.24 "HgN/A
12:50 am46 °FLow clouds.5 mph93%30.24 "HgN/A
12:20 am46 °FLow clouds.5 mph93%30.27 "HgN/A
11:20 pm
Sun, Jul 23
48 °FPartly sunny.6 mph94%30.27 "HgN/A
10:50 pm48 °FPartly sunny.5 mph94%30.27 "HgN/A
10:20 pm50 °FPartly sunny.5 mph88%30.27 "HgN/A
9:50 pm50 °FPartly sunny.6 mph88%30.27 "HgN/A
9:20 pm50 °FPartly sunny.7 mph88%30.27 "HgN/A
8:50 pm52 °FScattered clouds.6 mph82%30.27 "HgN/A
8:20 pm50 °FScattered clouds.8 mph88%30.27 "HgN/A
7:50 pm52 °FScattered clouds.8 mph82%30.27 "HgN/A
7:20 pm54 °FScattered clouds.8 mph82%30.27 "HgN/A
6:20 pm54 °FScattered clouds.6 mph82%30.27 "HgN/A
5:50 pm52 °FScattered clouds.7 mph88%30.27 "HgN/A
5:20 pm52 °FPartly sunny.6 mph88%30.27 "HgN/A
4:50 pm52 °FPartly sunny.7 mph88%30.27 "HgN/A
4:20 pm52 °FPartly sunny.5 mph88%30.30 "HgN/A
3:50 pm52 °FPartly sunny.3 mph88%30.30 "HgN/A
3:20 pm52 °FPartly sunny.5 mph82%30.30 "HgN/A
2:50 pm52 °FPartly sunny.5 mph82%30.30 "HgN/A
2:20 pm52 °FPartly sunny.5 mph88%30.30 "HgN/A
1:50 pm50 °FFog.5 mph88%30.30 "HgN/A
1:20 pm50 °FFog.5 mph88%30.33 "HgN/A
12:50 pm50 °FFog.3 mph94%30.33 "HgN/A
12:20 pm50 °FFog.6 mph94%30.33 "HgN/A
11:50 am50 °FFog.7 mph88%30.33 "HgN/A
11:20 am50 °FPartly sunny.7 mph88%30.33 "HgN/A
10:50 am50 °FPartly sunny.7 mph88%30.33 "HgN/A
10:20 am50 °FLow clouds.6 mph88%30.33 "HgN/A
9:20 am50 °FLow clouds.3 mph88%30.33 "HgN/A
8:20 am48 °FLow clouds.6 mph94%30.33 "HgN/A
7:50 am48 °FLow clouds.7 mph94%30.33 "HgN/A
7:20 am48 °FLow clouds.6 mph94%30.33 "HgN/A
6:50 am50 °FLow clouds.6 mph88%30.33 "HgN/A
6:20 am50 °FLow clouds.5 mph88%30.33 "HgN/A
5:20 am50 °FLow clouds.6 mph88%30.33 "HgN/A
Weather by CustomWeather, © 2017

See weather overviewHow to use our weather pages